N2DJ Weather Reports


Display with metric or nautical units.
time (UTC)temp
F
wind
direction
speed
MPH
gust
MPH
rain 1hr
in
rain 24hr
in
rain mn
in
humidity
%
barometer
mb
20260504010055 54 212 7.0 17.0 0.00 0.00 0.00 55 1009.9
20260504004550 54 265 7.0 19.0 0.00 0.00 0.00 56 1009.8
20260504003053 54 207 5.0 11.0 0.00 0.00 0.00 58 1009.8
20260504001554 54 257 2.0 16.0 0.00 0.00 0.00 58 1009.9
20260504000051 53 215 4.0 11.0 0.00 0.00 0.00 60 1010.0
20260503234647 53 250 1.0 7.0 0.00 0.00 0.00 68 1010.2
20260503233050 51 262 0.0 3.0 0.00 0.00 0.00 72 1010.3
20260503231545 52 266 0.0 3.0 0.00 0.00 0.00 71 1010.5
20260503230045 52 273 1.0 5.0 0.00 0.00 0.00 71 1010.5
20260503224544 52 260 1.0 10.0 0.00 0.00 0.00 69 1010.6
20260503223044 52 262 2.0 11.0 0.00 0.00 0.00 70 1010.7
20260503221554 52 239 3.0 17.0 0.00 0.00 0.00 66 1010.8
20260503220043 53 309 3.0 14.0 0.00 0.00 0.00 66 1010.5
20260503214542 53 221 6.0 17.0 0.00 0.00 0.00 65 1010.4
20260503213043 53 259 4.0 17.0 0.00 0.00 0.00 65 1010.2
20260503211540 52 283 5.0 13.0 0.00 0.00 0.00 65 1010.3
20260503210039 51 219 5.0 18.0 0.00 0.00 0.00 65 1010.4
20260503204539 51 221 7.0 18.0 0.00 0.00 0.00 64 1010.6
20260503203052 52 261 6.0 16.0 0.00 0.00 0.00 62 1010.6
20260503201536 53 281 3.0 13.0 0.00 0.00 0.00 62 1010.8
20260503200034 53 228 6.0 14.0 0.00 0.00 0.00 61 1010.9
20260503194532 53 239 4.0 17.0 0.00 0.00 0.00 59 1011.1
20260503193031 53 233 8.0 18.0 0.00 0.00 0.00 58 1011.3
20260503191534 52 248 8.0 15.0 0.00 0.00 0.00 57 1011.5
20260503190027 53 180 7.0 16.0 0.00 0.00 0.00 56 1011.8
20260503184626 54 202 6.0 20.0 0.00 0.00 0.00 55 1011.8
20260503183025 54 303 5.0 21.0 0.00 0.00 0.00 52 1012.1
20260503181521 53 255 7.0 17.0 0.00 0.00 0.00 51 1012.3
20260503180020 52 228 7.0 17.0 0.00 0.00 0.00 53 1012.6
20260503174518 52 254 8.0 20.0 0.00 0.00 0.00 54 1012.7
20260503173014 52 254 5.0 15.0 0.00 0.00 0.00 55 1013.2
20260503171514 51 217 8.0 17.0 0.00 0.00 0.00 54 1013.4
20260503081553 29 252 0.0 0.0 0.00 0.00 0.00 93 1015.5
20260503071604 30 252 0.0 0.0 0.00 0.00 0.00 92 1015.3
20260503054548 33 252 0.0 0.0 0.00 0.00 0.00 89 1015.6
20260503053034 34 252 0.0 0.0 0.00 0.00 0.00 89 1015.6
20260503051529 34 252 0.0 0.0 0.00 0.00 0.00 88 1015.7
20260503050036 35 252 0.0 0.0 0.00 0.00 0.00 88 1015.9
20260503044524 35 252 0.0 0.0 0.00 0.00 0.00 87 1015.9
20260503043021 36 252 0.0 0.0 0.00 0.00 0.00 85 1016.0
20260503041527 36 252 0.0 0.0 0.00 0.00 0.00 84 1016.2
20260503040015 37 252 0.0 0.0 0.00 0.00 0.00 82 1016.2
20260503034515 38 252 0.0 0.0 0.00 0.00 0.00 80 1016.2
20260503033014 39 252 0.0 0.0 0.00 0.00 0.00 79 1016.2
20260503031514 39 252 0.0 0.0 0.00 0.00 0.00 79 1016.2
20260503030015 39 252 0.0 0.0 0.00 0.00 0.00 79 1016.3
20260503024513 40 252 0.0 0.0 0.00 0.00 0.00 79 1016.3
20260503023012 40 252 0.0 0.0 0.00 0.00 0.00 78 1016.5
20260503021519 40 253 0.0 0.0 0.00 0.00 0.00 76 1016.6
20260503020015 40 253 0.0 2.0 0.00 0.00 0.00 76 1016.5
20260503014511 41 252 0.0 5.0 0.00 0.00 0.00 76 1016.6
20260503013011 41 272 1.0 4.0 0.00 0.00 0.00 76 1016.6
20260503011511 41 219 4.0 7.0 0.00 0.00 0.00 75 1016.6